Regional Weather Roundup
Issued by NWS

Home | Current Version | Previous Version | Graphics & Text | Print | Product List | Glossary On
Versions: 1 2 3 4 5 6 7 8 9 10 11 12 13 14 15 16 17 18 19 20 21 22 23 24 25 26 27 28 29 30 31 32 33 34 35 36 37 38 39 40 41 42 43 44 45 46 47 48 49 50
000
ASUS43 KMKX 011320
RWRWI

WISCONSIN REGIONAL WEATHER ROUNDUP
NATIONAL WEATHER SERVICE MILWAUKEE/SULLIVAN WI
700 AM CST SUN FEB 01 2015

NOTE: "FAIR" INDICATES FEW OR NO CLOUDS BELOW 12,000 FEET WITH NO
SIGNIFICANT WEATHER AND/OR OBSTRUCTIONS TO VISIBILITY.

WIZ001-002-006>008-014>016-023>028-011400-
NORTHWEST WISCONSIN

CITY           SKY/WX    TMP DP  RH WIND       PRES   REMARKS
SUPERIOR ARPT    N/A      9   6  86 NE14G21   30.36S WCI  -7
ASHLAND        LGT SNOW   8   4  83 N5        30.35S VSB 3/4 WCI   0
HAYWARD        CLOUDY     7  -3  64 NE10      30.27S WCI  -8
SIREN          CLOUDY    10   0  62 E9G16     30.28R WCI  -2
CUMBERLAND     CLOUDY     9   0  66 NE20      30.22R WCI -11
RICE LAKE      CLOUDY    10   1  68 NE12      30.24R WCI  -5
CHETEK         CLOUDY     9   1  68 MISG      30.23R
LADYSMITH      CLOUDY     8   1  72 NE13      30.24S WCI  -7
EAU CLAIRE     LGT SNOW  12   3  67 E17G25    30.19R WCI  -5
MENOMONIE      CLOUDY    13   5  70 NE13G18   30.20R HAZE    WCI  -1
NEW RICHMOND   CLOUDY    12   2  65 NE17      30.21R WCI  -5
OSCEOLA        CLOUDY    13   4  65 NE18      30.26R WCI  -4
$$

WIZ003>005-009-010-017-018-011400-
NORTH CENTRAL WISCONSIN

CITY           SKY/WX    TMP DP  RH WIND       PRES   REMARKS
MANITOWISH WTR MOCLDY     3  -2  78 NE10      30.23S WCI -12
ARBOR VITAE    CLOUDY     5  -1  77 NE6       30.21F WCI  -6
WOODRUFF       CLOUDY     5  -1  77 NE6       30.21F WCI  -6
RHINELANDER    CLOUDY     5  -1  76 NE7       30.20S WCI  -7
EAGLE RIVER    CLOUDY     4  -2  75 NE10      30.21F WCI -11
LAND O LAKES   CLOUDY     3   0  84 NE5       30.23F WCI  -6
PHILLIPS       CLOUDY     4  -2  76 NE10G21   30.21S WCI -11
TOMAHAWK       CLOUDY     6   0  74 NE7       30.21S WCI  -6
MEDFORD        CLOUDY     8   1  73 NE15G22   30.16F WCI -10
MERRILL        CLOUDY     9   2  73 E10       30.19F WCI  -6
$$

WIZ029-030-035-036-043>047-011400-
CENTRAL WISCONSIN

CITY           SKY/WX    TMP DP  RH WIND       PRES   REMARKS
WAUSAU         CLOUDY    10   2  69 E13G18    30.17F WCI  -5
MOSINEE        CLOUDY    10   5  79 NE17G23   30.17F WCI  -7
MARSHFIELD     LGT SNOW  11   5  77 NE14      30.15S WCI  -5
STEVENS POINT  LGT SNOW   9   4  82 NE14      30.17F WCI  -7
WAUPACA        LGT SNOW  14   8  79 NE10G17   30.19F WCI   1
WAUTOMA        LGT SNOW  12   8  84 NE15G21   30.15F FOG     WCI  -4
WISC RAPIDS    LGT SNOW  11   5  77 NE10      30.17F WCI  -3
CAMP DOUGLAS   LGT SNOW  12  12 100 NE8       30.13S FOG     WCI   1
$$

WIZ011>013-019>022-031-037>040-048>050-011400-
NORTHEAST WISCONSIN

CITY           SKY/WX    TMP DP  RH WIND       PRES   REMARKS
ANTIGO         CLOUDY     7   2  78 NE17      30.18F WCI -11
SHAWANO        CLOUDY    14   5  67 NE13G21   30.23F WCI   0
OCONTO         CLOUDY    12   6  75 NE15G23   30.26F WCI  -4
STURGEON BAY   CLOUDY    10   3  72 N14G21    30.25F WCI  -5
GREEN BAY      MIX PCPN  13   7  77 NE30G38   30.22F WCI  -8
MANITOWOC      LGT SNOW  19  18  93 NE10G22   30.18F VSB 3/4 WCI   8
APPLETON       NOT AVBL
CLINTONVILLE   CLOUDY    12   5  73 NE15G21   30.21F WCI  -4
OSHKOSH        LGT SNOW  13   9  84 NE23G38   30.14F VSB 3/4 WCI  -6
$$

WIZ032>034-041-042-053>061-011400-
SOUTHWEST WISCONSIN

CITY           SKY/WX    TMP DP  RH WIND       PRES   REMARKS
LA CROSSE      LGT SNOW  17  10  74 NE17G24   30.14R WCI   1
SPARTA         LGT SNOW  13   9  83 NE12      30.13S WCI   0
VIROQUA        CLOUDY    13  10  89 NE17G23   30.03F WCI  -4
BOSCOBEL       LGT SNOW  17  12  80 NE10G23   30.06R VSB 1   WCI   5
PRAIRIE DU CHI MIX PCPN  19  13  77 NE9G18    30.04R WCI   8
PLATTEVILLE    CLOUDY    19  16  88 NE25G33   29.95R WCI   1
$$

WIZ056-057-062-063-064-067-068-011400-
SOUTH CENTRAL WISCONSIN

CITY           SKY/WX    TMP DP  RH WIND       PRES   REMARKS
REEDSBURG      LGT SNOW  13  10  85 NE14G21   30.08F WCI  -2
BARABOO/DELLS  LGT SNOW  13   9  85 NE16G25   30.08F VSB 3/4 WCI  -4
LONE ROCK      LGT SNOW  17  11  77 NE14G21   30.06F WCI   3
MINERAL POINT  LGT SNOW  19  16  86 NE20G33   29.97R WCI   4
MADISON        LGT SNOW  15  11  83 NE21G28   30.05F VSB 3/4 WCI  -2
MIDDLETON      CLOUDY    17  12  83 NE16G24   30.05F WCI   1
WATERTOWN      LGT SNOW  20  18  93 NE15      30.05F WCI   6
MONROE         LGT SNOW  21  21 100 NE17      29.95F WCI   7
JANESVILLE     CLOUDY    27  25  93 NE17G23   29.99F WCI  14
$$

WIZ051-052-058>065-066-070>072-011400-
SOUTHEAST WISCONSIN

CITY           SKY/WX    TMP DP  RH WIND       PRES   REMARKS
MILWAUKEE      LGT SNOW  24  20  84 NE24G32   30.07F VSB 3/4 WCI   8
WAUKESHA       LGT SNOW  21  19  93 NE12G29   30.06F VSB 1   WCI   9
MILWAUKEE/TIMM LGT SNOW  23  19  86 NE16G22   30.08F WCI  10
RACINE         SNOW      25  22  88 NE24G31   30.07F VSB 1/2 WCI   9
BURLINGTON     LGT SNOW  23  22  93 E22G29    30.02F WCI   8
KENOSHA        LGT SNOW  26  24  92 NE23      30.03F VSB 3/4 WCI  11
FOND DU LAC    LGT SNOW  15  10  80 NE16G25   30.14F VSB 1   WCI  -1
SHEBOYGAN      LGT SNOW  21  17  84 NE21G31   30.13F VSB 1   WCI   5
WEST BEND      LGT SNOW  21  18  86 NE18G26   30.09F WCI   6
JUNEAU         LGT SNOW  15  12  87 NE15G24   30.09F WCI   0
$$

LSZ147-162-011400-
LAKE SUPERIOR

STATION/POSITION TIME  TEMP    WIND        PRES    WAVE
                       AIR SEA DIR/SP/G            HT/PER
                 (UTC) (F)     (DEG/KT/KT) (MB)    (FT/S)
DEVILS ISLAND    1300    9      50/ 18/ 21 1031.0R
PORT WING        1200   13      50/ 14/ 21 1028.1F
SAXON HARBOR     1200    8      CALM  /  1 1027.8F
$$

LMZ867-665-643>646-011400-
LAKE MICHIGAN

STATION/POSITION TIME  TEMP    WIND        PRES    WAVE
                       AIR SEA DIR/SP/G            HT/PER
                 (UTC) (F)     (DEG/KT/KT) (MB)    (FT/S)
NORTHPORT PIER   1229   11      10/ 18/ 24 1026.1S
SISTER BAY       1243   10      10/ 13/ 20   N/A
KEWAUNEE LAKESHO 1200   16      10/ 11/ 17 1022.4F
SHEBOYGAN LAKESH 1300   22      60/ 30/ 32 1021.7F
PORT WASHINGTON  1300   24      60/ 22     1020.3
MILWAUKEE LAKESH 1300   25      60/ 26/ 31   N/A
KENOSHA   LAKESH 1300   27      60/ 25/ 32 1016.9F
$$

TC  - TEMPERATURE IN CELSIUS
VSB - VISIBILITY IN STATUTE MILES
WCI - WIND CHILL INDEX
HX  - HEAT INDEX



USA.gov is the U.S. government's official web portal to all federal, state and local government web resources and services.